Terminal Aerodrome Forecast
Issued by NWS Buffalo, NY

Home | Current Version | Previous Version | Text Only | Print | Product List | Glossary On
Versions: 1 2 3 4 5 6 7 8 9 10 11 12 13 14 15 16 17 18 19 20 21 22 23 24 25 26 27 28 29 30 31
000
FTUS41 KBUF 200900 AAA
TAFART
TAF AMD
KART 200907Z 2009/2106 16005KT P6SM OVC100
     FM201600 19008KT P6SM OVC045
     FM202300 17005KT P6SM VCSH OVC045
     FM210400 18008KT 6SM -SHRA OVC030=

USA.gov is the U.S. government's official web portal to all federal, state and local government web resources and services.